Location: Clarion
(42.7316°N, 93.7330°W)
Time: 09:40:09
(UTC+00:00)

NOSS 2-1 (E) - Pass Details

Date: 22 April 2026
Orbit: 385 x 1749 km, 63.3° (Epoch: 7 May)

Event Time Altitude Azimuth Distance (km) Brightness Sun altitude
Rises 03:09:46 0° 316° (NW) 2,450 8.2 -20.9°
Reaches altitude 10° 03:11:42 10° 309° (NW) 1,671 7.0 -21.1°
Maximum altitude 03:15:10 42° 237° (WSW) 818 4.2 -21.6°
Enters shadow 03:16:08 36° 203° (SSW) 951 4.3 -21.7°
